DTA283 FNSA-FNLU

Flight info

Callsign DTA283
Flight time 1h 8m
Altitude 24000
Route KILBI H600 AVOVA D049T
Aircraft B737/M-SDE2E3FGHIRWXY/LB1

Departure

Time 2026-04-19 20:53
Airport Saurimo Airport (FNSA)

Arrival

Time 2026-04-19 22:01
Airport Quatro de Fevereiro International Airport (FNLU)
Time Latitude Longitude Altitude Speed Heading
2026-04-19 19:59 -9.68776 20.42354 3591 ft 0 kts 172°
2026-04-19 20:30 -9.68775 20.42354 3589 ft 1 kts 172°
2026-04-19 20:30 -9.68752 20.42354 3593 ft 4 kts 200°
2026-04-19 20:30 -9.68732 20.42362 3585 ft 4 kts 149°
2026-04-19 20:31 -9.68730 20.42361 3584 ft 1 kts 130°
2026-04-19 20:39 -9.68731 20.42362 3591 ft 1 kts 130°
2026-04-19 20:39 -9.68738 20.42370 3588 ft 2 kts 132°
2026-04-19 20:39 -9.68753 20.42387 3584 ft 4 kts 133°
2026-04-19 20:39 -9.68774 20.42412 3591 ft 5 kts 130°
2026-04-19 20:40 -9.68799 20.42447 3584 ft 7 kts 117°
2026-04-19 20:40 -9.68795 20.42491 3584 ft 7 kts 53°
2026-04-19 20:40 -9.68759 20.42522 3591 ft 7 kts 38°
2026-04-19 20:40 -9.68725 20.42552 3584 ft 6 kts 41°
2026-04-19 20:41 -9.68691 20.42581 3586 ft 6 kts 39°
2026-04-19 20:41 -9.68657 20.42609 3591 ft 6 kts 39°
2026-04-19 20:41 -9.68624 20.42637 3591 ft 6 kts 38°
2026-04-19 20:41 -9.68591 20.42663 3591 ft 6 kts 41°
2026-04-19 20:42 -9.68560 20.42691 3591 ft 6 kts 40°
2026-04-19 20:42 -9.68536 20.42723 3588 ft 6 kts 70°
2026-04-19 20:42 -9.68538 20.42762 3590 ft 6 kts 115°
2026-04-19 20:42 -9.68565 20.42791 3580 ft 6 kts 137°
2026-04-19 20:43 -9.68592 20.42820 3588 ft 5 kts 131°
2026-04-19 20:43 -9.68617 20.42849 3585 ft 5 kts 131°
2026-04-19 20:43 -9.68641 20.42877 3586 ft 5 kts 130°
2026-04-19 20:43 -9.68664 20.42906 3588 ft 5 kts 128°
2026-04-19 20:44 -9.68687 20.42934 3592 ft 5 kts 129°
2026-04-19 20:44 -9.68709 20.42961 3585 ft 5 kts 129°
2026-04-19 20:44 -9.68731 20.42988 3586 ft 5 kts 130°
2026-04-19 20:44 -9.68753 20.43014 3587 ft 5 kts 131°
2026-04-19 20:45 -9.68775 20.43038 3592 ft 5 kts 133°
2026-04-19 20:45 -9.68797 20.43062 3592 ft 5 kts 131°
2026-04-19 20:45 -9.68817 20.43087 3591 ft 5 kts 127°
2026-04-19 20:45 -9.68836 20.43112 3592 ft 4 kts 128°
2026-04-19 20:46 -9.68856 20.43136 3579 ft 4 kts 130°
2026-04-19 20:46 -9.68875 20.43158 3583 ft 4 kts 131°
2026-04-19 20:46 -9.68894 20.43181 3593 ft 4 kts 130°
2026-04-19 20:46 -9.68915 20.43206 3590 ft 6 kts 131°
2026-04-19 20:47 -9.68948 20.43244 3593 ft 9 kts 127°
2026-04-19 20:47 -9.68995 20.43301 3587 ft 12 kts 130°
2026-04-19 20:47 -9.69059 20.43378 3591 ft 16 kts 130°
2026-04-19 20:47 -9.69136 20.43470 3587 ft 18 kts 130°
2026-04-19 20:48 -9.69222 20.43573 3584 ft 20 kts 130°
2026-04-19 20:48 -9.69313 20.43683 3584 ft 20 kts 130°
2026-04-19 20:48 -9.69402 20.43788 3591 ft 19 kts 132°
2026-04-19 20:48 -9.69488 20.43891 3591 ft 19 kts 129°
2026-04-19 20:49 -9.69571 20.43990 3586 ft 18 kts 131°
2026-04-19 20:49 -9.69651 20.44086 3593 ft 18 kts 129°
2026-04-19 20:49 -9.69729 20.44179 3588 ft 17 kts 130°
2026-04-19 20:49 -9.69803 20.44268 3587 ft 16 kts 131°
2026-04-19 20:50 -9.69877 20.44336 3587 ft 11 kts 107°
2026-04-19 20:50 -9.69856 20.44340 3582 ft 3 kts 316°
2026-04-19 20:50 -9.69843 20.44319 3585 ft 4 kts 294°
2026-04-19 20:50 -9.69829 20.44298 3587 ft 3 kts 308°
2026-04-19 20:51 -9.69821 20.44289 3587 ft 0 kts 310°
2026-04-19 20:52 -9.69820 20.44288 3587 ft 1 kts 310°
2026-04-19 20:52 -9.69746 20.44200 3592 ft 49 kts 310°
2026-04-19 20:52 -9.69363 20.43741 3584 ft 120 kts 309°
2026-04-19 20:52 -9.68696 20.42940 3598 ft 176 kts 310°
2026-04-19 20:53 -9.67862 20.41942 4038 ft 194 kts 311°
2026-04-19 20:53 -9.66137 20.39908 5673 ft 191 kts 312°
2026-04-19 20:53 -9.65245 20.38844 6181 ft 214 kts 311°
2026-04-19 20:54 -9.64217 20.37612 6426 ft 243 kts 311°
2026-04-19 20:54 -9.63084 20.36238 6704 ft 270 kts 308°
2026-04-19 20:54 -9.62327 20.34417 7144 ft 291 kts 278°
2026-04-19 20:54 -9.62210 20.32354 8012 ft 295 kts 271°
2026-04-19 20:55 -9.62211 20.30260 8921 ft 299 kts 269°
2026-04-19 20:55 -9.62238 20.28139 9831 ft 303 kts 269°
2026-04-19 20:55 -9.62265 20.25974 10476 ft 315 kts 270°
2026-04-19 20:55 -9.62283 20.23698 11021 ft 328 kts 270°
2026-04-19 20:56 -9.62295 20.21365 11783 ft 334 kts 270°
2026-04-19 20:56 -9.62303 20.19011 12625 ft 337 kts 270°
2026-04-19 20:56 -9.62311 20.16622 13465 ft 341 kts 270°
2026-04-19 20:56 -9.62317 20.14206 14204 ft 345 kts 270°
2026-04-19 20:57 -9.62321 20.11752 14942 ft 349 kts 270°
2026-04-19 20:57 -9.62326 20.09281 15707 ft 353 kts 270°
2026-04-19 20:57 -9.62327 20.06782 16458 ft 357 kts 270°
2026-04-19 20:57 -9.62325 20.04254 17195 ft 361 kts 271°
2026-04-19 20:58 -9.62323 20.01695 17927 ft 365 kts 270°
2026-04-19 20:58 -9.62321 19.99141 18586 ft 369 kts 270°
2026-04-19 20:58 -9.62319 19.96521 19203 ft 373 kts 270°
2026-04-19 20:58 -9.62318 19.93873 19831 ft 377 kts 270°
2026-04-19 20:59 -9.62318 19.91205 20456 ft 381 kts 270°
2026-04-19 20:59 -9.62317 19.88492 20864 ft 392 kts 270°
2026-04-19 20:59 -9.62313 19.85677 21097 ft 406 kts 270°
2026-04-19 20:59 -9.62309 19.82792 21532 ft 412 kts 270°
2026-04-19 21:00 -9.62305 19.79880 22095 ft 414 kts 270°
2026-04-19 21:00 -9.62302 19.76952 22654 ft 417 kts 270°
2026-04-19 21:00 -9.62299 19.73995 23159 ft 421 kts 270°
2026-04-19 21:00 -9.62296 19.71017 23616 ft 424 kts 270°
2026-04-19 21:01 -9.62293 19.68016 24032 ft 427 kts 270°
2026-04-19 21:01 -9.62290 19.64998 24464 ft 429 kts 270°
2026-04-19 21:01 -9.62286 19.61966 24895 ft 431 kts 270°
2026-04-19 21:01 -9.62287 19.58918 25309 ft 434 kts 270°
2026-04-19 21:02 -9.62290 19.55852 25712 ft 436 kts 270°
2026-04-19 21:02 -9.62290 19.52768 26120 ft 439 kts 270°
2026-04-19 21:02 -9.62288 19.49668 26529 ft 441 kts 270°
2026-04-19 21:02 -9.62279 19.46594 26923 ft 443 kts 270°
2026-04-19 21:03 -9.62271 19.43460 27301 ft 446 kts 270°
2026-04-19 21:03 -9.62261 19.40308 27670 ft 449 kts 270°
2026-04-19 21:03 -9.62254 19.37136 28060 ft 451 kts 270°
2026-04-19 21:03 -9.62248 19.33952 28439 ft 453 kts 269°
2026-04-19 21:04 -9.62244 19.30750 28799 ft 456 kts 270°
2026-04-19 21:04 -9.62236 19.27531 29153 ft 458 kts 269°
2026-04-19 21:04 -9.62229 19.24288 29487 ft 461 kts 269°
2026-04-19 21:04 -9.62223 19.21042 29832 ft 463 kts 269°
2026-04-19 21:05 -9.62215 19.17766 30133 ft 465 kts 270°
2026-04-19 21:05 -9.62203 19.14489 30424 ft 467 kts 270°
2026-04-19 21:05 -9.62193 19.11194 30726 ft 468 kts 270°
2026-04-19 21:05 -9.62184 19.07889 31008 ft 470 kts 270°
2026-04-19 21:06 -9.62172 19.04571 31288 ft 472 kts 270°
2026-04-19 21:06 -9.62161 19.01233 31559 ft 474 kts 270°
2026-04-19 21:06 -9.62153 18.97891 31842 ft 475 kts 270°
2026-04-19 21:06 -9.62142 18.94550 32222 ft 473 kts 270°
2026-04-19 21:07 -9.62129 18.91223 32669 ft 471 kts 270°
2026-04-19 21:07 -9.62117 18.87913 33115 ft 469 kts 270°
2026-04-19 21:07 -9.62106 18.84613 33519 ft 468 kts 270°
2026-04-19 21:07 -9.62098 18.81315 33912 ft 468 kts 270°
2026-04-19 21:08 -9.62087 18.78062 34284 ft 466 kts 270°
2026-04-19 21:08 -9.62075 18.74790 34704 ft 463 kts 270°
2026-04-19 21:08 -9.62061 18.71537 35104 ft 461 kts 270°
2026-04-19 21:08 -9.62046 18.68299 35442 ft 459 kts 270°
2026-04-19 21:09 -9.62031 18.65064 35764 ft 458 kts 270°
2026-04-19 21:09 -9.62018 18.61838 36098 ft 457 kts 270°
2026-04-19 21:09 -9.62006 18.58616 36437 ft 456 kts 270°
2026-04-19 21:09 -9.61977 18.55411 36771 ft 454 kts 271°
2026-04-19 21:10 -9.61881 18.52226 37097 ft 452 kts 272°
2026-04-19 21:10 -9.61747 18.49042 37445 ft 450 kts 272°
2026-04-19 21:10 -9.61603 18.45881 37778 ft 448 kts 272°
2026-04-19 21:10 -9.61461 18.42727 38060 ft 448 kts 272°
2026-04-19 21:11 -9.61323 18.39578 38324 ft 447 kts 272°
2026-04-19 21:11 -9.61188 18.36435 38617 ft 446 kts 272°
2026-04-19 21:11 -9.61058 18.33304 38867 ft 444 kts 272°
2026-04-19 21:11 -9.60932 18.30181 39080 ft 443 kts 272°
2026-04-19 21:12 -9.60806 18.27059 39275 ft 443 kts 272°
2026-04-19 21:12 -9.60682 18.23939 39497 ft 442 kts 272°
2026-04-19 21:12 -9.60558 18.20830 39735 ft 441 kts 272°
2026-04-19 21:12 -9.60436 18.17731 39908 ft 441 kts 273°
2026-04-19 21:13 -9.60185 18.11491 39908 ft 443 kts 273°
2026-04-19 21:13 -9.59934 18.05282 39901 ft 439 kts 272°
2026-04-19 21:14 -9.59685 17.99165 39907 ft 436 kts 273°
2026-04-19 21:14 -9.59436 17.93040 39909 ft 433 kts 273°
2026-04-19 21:15 -9.59186 17.86951 39912 ft 432 kts 272°
2026-04-19 21:15 -9.58939 17.80868 39912 ft 432 kts 273°
2026-04-19 21:16 -9.58686 17.74767 39917 ft 434 kts 273°
2026-04-19 21:16 -9.58427 17.68628 39920 ft 437 kts 273°
2026-04-19 21:17 -9.58173 17.62496 39915 ft 439 kts 273°
2026-04-19 21:17 -9.57912 17.56298 39908 ft 441 kts 273°
2026-04-19 21:18 -9.57651 17.50065 39914 ft 443 kts 273°
2026-04-19 21:18 -9.57389 17.43828 39910 ft 444 kts 273°
2026-04-19 21:19 -9.57168 17.38629 39917 ft 444 kts 273°
2026-04-19 21:19 -9.56901 17.32366 39915 ft 444 kts 273°
2026-04-19 21:20 -9.56638 17.26125 39923 ft 443 kts 273°
2026-04-19 21:20 -9.56368 17.19900 39923 ft 442 kts 273°
2026-04-19 21:21 -9.56101 17.13685 39933 ft 441 kts 273°
2026-04-19 21:21 -9.55839 17.07524 39941 ft 440 kts 273°
2026-04-19 21:22 -9.55566 17.01334 39945 ft 439 kts 273°
2026-04-19 21:22 -9.55294 16.95159 39948 ft 438 kts 273°
2026-04-19 21:23 -9.55024 16.88988 39951 ft 438 kts 273°
2026-04-19 21:23 -9.54754 16.82812 39952 ft 438 kts 273°
2026-04-19 21:24 -9.54487 16.76676 39954 ft 439 kts 273°
2026-04-19 21:24 -9.54210 16.70489 39955 ft 439 kts 273°
2026-04-19 21:25 -9.53934 16.64300 39959 ft 440 kts 273°
2026-04-19 21:25 -9.53659 16.58100 39956 ft 441 kts 273°
2026-04-19 21:26 -9.53381 16.51884 39958 ft 441 kts 273°
2026-04-19 21:26 -9.53105 16.45669 39954 ft 442 kts 273°
2026-04-19 21:27 -9.52824 16.39439 39954 ft 442 kts 273°
2026-04-19 21:27 -9.52090 16.33308 39964 ft 441 kts 282°
2026-04-19 21:28 -9.50755 16.27232 39951 ft 442 kts 283°
2026-04-19 21:28 -9.49396 16.21163 39954 ft 442 kts 283°
2026-04-19 21:29 -9.48070 16.15085 39952 ft 442 kts 283°
2026-04-19 21:29 -9.46754 16.09016 39954 ft 441 kts 283°
2026-04-19 21:30 -9.45445 16.02949 39954 ft 441 kts 283°
2026-04-19 21:30 -9.44146 15.96882 39952 ft 440 kts 283°
2026-04-19 21:31 -9.42855 15.90826 39954 ft 440 kts 282°
2026-04-19 21:31 -9.41545 15.84774 39953 ft 439 kts 283°
2026-04-19 21:32 -9.40235 15.78728 39949 ft 439 kts 283°
2026-04-19 21:32 -9.38949 15.72721 39953 ft 439 kts 283°
2026-04-19 21:33 -9.37648 15.66675 39949 ft 439 kts 283°
2026-04-19 21:33 -9.36343 15.60627 39949 ft 440 kts 283°
2026-04-19 21:34 -9.35028 15.54577 39944 ft 440 kts 283°
2026-04-19 21:34 -9.33719 15.48523 39947 ft 440 kts 283°
2026-04-19 21:35 -9.32408 15.42466 39937 ft 441 kts 283°
2026-04-19 21:35 -9.31095 15.36400 39937 ft 441 kts 283°
2026-04-19 21:36 -9.30433 15.33342 39504 ft 449 kts 283°
2026-04-19 21:36 -9.29765 15.30250 39000 ft 448 kts 283°
2026-04-19 21:36 -9.29097 15.27165 38386 ft 448 kts 283°
2026-04-19 21:36 -9.28428 15.24087 37710 ft 448 kts 283°
2026-04-19 21:37 -9.27756 15.20999 37063 ft 448 kts 283°
2026-04-19 21:37 -9.27085 15.17933 36545 ft 445 kts 283°
2026-04-19 21:37 -9.26425 15.14922 36108 ft 441 kts 283°
2026-04-19 21:37 -9.25761 15.11896 35649 ft 438 kts 283°
2026-04-19 21:38 -9.25104 15.08897 35189 ft 435 kts 282°
2026-04-19 21:38 -9.24455 15.05922 34730 ft 433 kts 282°
2026-04-19 21:38 -9.23806 15.02946 34248 ft 431 kts 282°
2026-04-19 21:38 -9.23161 14.99989 33773 ft 430 kts 282°
2026-04-19 21:39 -9.22518 14.97043 33274 ft 427 kts 282°
2026-04-19 21:39 -9.21879 14.94116 32804 ft 425 kts 282°
2026-04-19 21:39 -9.21243 14.91200 32343 ft 422 kts 282°
2026-04-19 21:39 -9.20610 14.88307 31896 ft 420 kts 282°
2026-04-19 21:40 -9.19353 14.82570 31032 ft 415 kts 282°
2026-04-19 21:40 -9.18736 14.79753 30601 ft 414 kts 282°
2026-04-19 21:40 -9.18116 14.76914 30155 ft 413 kts 282°
2026-04-19 21:41 -9.17495 14.74081 29669 ft 411 kts 282°
2026-04-19 21:41 -9.16876 14.71254 29201 ft 409 kts 282°
2026-04-19 21:41 -9.16261 14.68447 28723 ft 408 kts 282°
2026-04-19 21:41 -9.15648 14.65655 28257 ft 406 kts 282°
2026-04-19 21:42 -9.15036 14.62871 27801 ft 404 kts 282°
2026-04-19 21:42 -9.14427 14.60096 27342 ft 403 kts 282°
2026-04-19 21:42 -9.13806 14.57340 26889 ft 401 kts 285°
2026-04-19 21:42 -9.12890 14.54682 26429 ft 400 kts 295°
2026-04-19 21:43 -9.11672 14.52156 25990 ft 399 kts 297°
2026-04-19 21:43 -9.10425 14.49655 25543 ft 398 kts 297°
2026-04-19 21:43 -9.09190 14.47188 25069 ft 397 kts 297°
2026-04-19 21:43 -9.07954 14.44703 24615 ft 394 kts 297°
2026-04-19 21:44 -9.06727 14.42225 24153 ft 394 kts 297°
2026-04-19 21:44 -9.05502 14.39748 23699 ft 394 kts 297°
2026-04-19 21:44 -9.04281 14.37268 23179 ft 394 kts 297°
2026-04-19 21:44 -9.03062 14.34786 22670 ft 392 kts 297°
2026-04-19 21:45 -9.01854 14.32321 22183 ft 390 kts 297°
2026-04-19 21:45 -9.00654 14.29866 21711 ft 388 kts 297°
2026-04-19 21:45 -8.99457 14.27423 21240 ft 386 kts 297°
2026-04-19 21:45 -8.98264 14.24989 20773 ft 384 kts 297°
2026-04-19 21:46 -8.97079 14.22570 20309 ft 383 kts 297°
2026-04-19 21:46 -8.95901 14.20165 19849 ft 381 kts 297°
2026-04-19 21:46 -8.94743 14.17795 19377 ft 380 kts 296°
2026-04-19 21:46 -8.93576 14.15400 18897 ft 379 kts 297°
2026-04-19 21:47 -8.92410 14.13015 18419 ft 378 kts 297°
2026-04-19 21:47 -8.91246 14.10642 17900 ft 377 kts 297°
2026-04-19 21:47 -8.90083 14.08271 17391 ft 375 kts 297°
2026-04-19 21:47 -8.88929 14.05919 16911 ft 372 kts 297°
2026-04-19 21:48 -8.87784 14.03585 16431 ft 370 kts 297°
2026-04-19 21:48 -8.86643 14.01259 15957 ft 367 kts 297°
2026-04-19 21:48 -8.85510 13.98955 15485 ft 365 kts 297°
2026-04-19 21:48 -8.84387 13.96668 15015 ft 363 kts 297°
2026-04-19 21:49 -8.83265 13.94382 14534 ft 361 kts 297°
2026-04-19 21:49 -8.82152 13.92104 14053 ft 360 kts 297°
2026-04-19 21:49 -8.81041 13.89833 13557 ft 359 kts 297°
2026-04-19 21:49 -8.79933 13.87575 13047 ft 357 kts 297°
2026-04-19 21:50 -8.78830 13.85334 12568 ft 354 kts 297°
2026-04-19 21:50 -8.77736 13.83111 12094 ft 352 kts 297°
2026-04-19 21:50 -8.76652 13.80905 11631 ft 349 kts 297°
2026-04-19 21:50 -8.75577 13.78719 11162 ft 347 kts 297°
2026-04-19 21:51 -8.74509 13.76544 10768 ft 342 kts 297°
2026-04-19 21:51 -8.73457 13.74402 10339 ft 340 kts 297°
2026-04-19 21:51 -8.72415 13.72280 10104 ft 328 kts 298°
2026-04-19 21:51 -8.71430 13.70264 9891 ft 311 kts 297°
2026-04-19 21:52 -8.70499 13.68362 9874 ft 293 kts 297°
2026-04-19 21:52 -8.69609 13.66548 9520 ft 286 kts 298°
2026-04-19 21:52 -8.68722 13.64753 9003 ft 285 kts 297°
2026-04-19 21:52 -8.67843 13.62962 8515 ft 283 kts 298°
2026-04-19 21:53 -8.66967 13.61185 8048 ft 281 kts 298°
2026-04-19 21:53 -8.66100 13.59422 7594 ft 279 kts 297°
2026-04-19 21:53 -8.65248 13.57689 7154 ft 277 kts 297°
2026-04-19 21:53 -8.64392 13.55952 6714 ft 275 kts 298°
2026-04-19 21:54 -8.63537 13.54219 6312 ft 277 kts 298°
2026-04-19 21:54 -8.62681 13.52482 6064 ft 274 kts 297°
2026-04-19 21:54 -8.61912 13.50737 5784 ft 273 kts 284°
2026-04-19 21:54 -8.61993 13.48847 5479 ft 272 kts 248°
2026-04-19 21:55 -8.63049 13.47293 5285 ft 265 kts 226°
2026-04-19 21:55 -8.64322 13.46028 5175 ft 250 kts 223°
2026-04-19 21:55 -8.65560 13.44862 5093 ft 238 kts 221°
2026-04-19 21:55 -8.66768 13.43754 4940 ft 231 kts 223°
2026-04-19 21:56 -8.67905 13.42619 4517 ft 231 kts 225°
2026-04-19 21:56 -8.69021 13.41438 4139 ft 232 kts 226°
2026-04-19 21:56 -8.70133 13.40265 3828 ft 230 kts 225°
2026-04-19 21:56 -8.71224 13.39110 3659 ft 221 kts 226°
2026-04-19 21:57 -8.72252 13.38006 3566 ft 210 kts 226°
2026-04-19 21:57 -8.73226 13.36955 3467 ft 199 kts 226°
2026-04-19 21:57 -8.74170 13.35936 3307 ft 201 kts 226°
2026-04-19 21:57 -8.75135 13.34895 3072 ft 204 kts 226°
2026-04-19 21:58 -8.76084 13.33873 2822 ft 199 kts 226°
2026-04-19 21:58 -8.77020 13.32867 2574 ft 193 kts 225°
2026-04-19 21:58 -8.77929 13.31889 2311 ft 188 kts 226°
2026-04-19 21:58 -8.78795 13.30949 2069 ft 178 kts 226°
2026-04-19 21:59 -8.79605 13.30075 1864 ft 163 kts 225°
2026-04-19 21:59 -8.80342 13.29282 1668 ft 146 kts 224°
2026-04-19 21:59 -8.81005 13.28567 1468 ft 134 kts 225°
2026-04-19 21:59 -8.81626 13.27877 1278 ft 134 kts 226°
2026-04-19 22:00 -8.82267 13.27172 1216 ft 137 kts 225°
2026-04-19 22:00 -8.82934 13.26446 1029 ft 146 kts 225°
2026-04-19 22:00 -8.83658 13.25710 826 ft 145 kts 225°
2026-04-19 22:00 -8.84334 13.24975 651 ft 141 kts 226°
2026-04-19 22:01 -8.85005 13.24250 448 ft 139 kts 226°
2026-04-19 22:01 -8.85654 13.23557 270 ft 129 kts 225°
2026-04-19 22:01 -8.86196 13.22978 256 ft 78 kts 226°
2026-04-19 22:01 -8.86409 13.22746 258 ft 22 kts 236°
2026-04-19 22:02 -8.86389 13.22686 257 ft 2 kts 336°
2026-04-19 22:02 -8.86370 13.22682 257 ft 4 kts 354°
2026-04-19 22:02 -8.86324 13.22685 257 ft 9 kts
2026-04-19 22:02 -8.86250 13.22691 258 ft 13 kts 17°
2026-04-19 22:03 -8.86172 13.22751 258 ft 16 kts 48°
2026-04-19 22:03 -8.86091 13.22841 258 ft 18 kts 47°
2026-04-19 22:03 -8.86007 13.22932 258 ft 17 kts 47°
2026-04-19 22:03 -8.85925 13.23018 258 ft 17 kts 40°
2026-04-19 22:04 -8.85820 13.23059 258 ft 16 kts
2026-04-19 22:04 -8.85710 13.23062 258 ft 15 kts
2026-04-19 22:04 -8.85605 13.23065 258 ft 15 kts
2026-04-19 22:04 -8.85504 13.23068 259 ft 14 kts
2026-04-19 22:05 -8.85407 13.23072 259 ft 14 kts
2026-04-19 22:05 -8.85315 13.23075 260 ft 13 kts
2026-04-19 22:05 -8.85225 13.23077 259 ft 13 kts
2026-04-19 22:05 -8.85139 13.23084 259 ft 12 kts 20°
2026-04-19 22:06 -8.85085 13.23147 259 ft 12 kts 61°
2026-04-19 22:06 -8.85062 13.23198 258 ft 12 kts 69°
2026-04-19 22:06 -8.85023 13.23269 258 ft 12 kts 51°
2026-04-19 22:06 -8.84989 13.23341 258 ft 11 kts 69°
2026-04-19 22:07 -8.84948 13.23434 258 ft 11 kts 68°
2026-04-19 22:07 -8.84930 13.23507 258 ft 10 kts 80°
2026-04-19 22:07 -8.84908 13.23576 258 ft 10 kts 68°
2026-04-19 22:07 -8.84880 13.23640 258 ft 10 kts 65°
2026-04-19 22:08 -8.84862 13.23683 258 ft 10 kts 67°
2026-04-19 22:08 -8.84835 13.23745 258 ft 9 kts 66°
2026-04-19 22:08 -8.84810 13.23806 258 ft 9 kts 69°
2026-04-19 22:08 -8.84786 13.23864 258 ft 9 kts 66°
2026-04-19 22:09 -8.84761 13.23921 258 ft 9 kts 66°
2026-04-19 22:09 -8.84738 13.23976 258 ft 8 kts 66°
2026-04-19 22:09 -8.84717 13.24031 258 ft 8 kts 68°
2026-04-19 22:09 -8.84695 13.24084 258 ft 8 kts 68°
2026-04-19 22:10 -8.84656 13.24109 258 ft 6 kts 347°
2026-04-19 22:10 -8.84647 13.24105 258 ft 1 kts 335°
2026-04-19 22:10 -8.84640 13.24102 258 ft 1 kts 336°
2026-04-19 22:10 -8.84634 13.24099 258 ft 0 kts 336°